カタログに戻る

SCD 2

運用中科学LEO
NORAD 25504·PAYLOAD·🇧🇷 Brazil

打ち上げ Oct 23, 1998 から Cape Canaveral Space Force Station

Loading…

次のパス (今後24時間)

TLE

最新Source: Space-Track

元期: Sep 14, 2026, 06:52 UTC

1 25504U 98060A   26257.28646880  .00000357  00000-0  48735-4 0  9999
2 25504  24.9945 242.6752 0016660 345.7625  36.9124 14.45552376473236

AllMySatでSCD 2をリアルタイム追跡

Download on the App Store